[[{"header":{"parameterUnit":"m.s-1","parameterCategory":1,"la1":30.2991,"la2":30.254,"lo1":-89.0895,"lo2":-89.0444,"dy":0.0017,"dx":0.0017,"nx":28,"ny":28,"refTime":"2025-05-17T21:00:00:Z","depth":0,"parameterNumber":2,"parameterNumberName":"U-component_of_WINDS"},"data":[0,0,0,0,0,0,0,0,0,0,0,0,0,0,0,0,0,0,0,0,0,0,0,0,0,0,0,0,0,0,0,0,0,0,0,0,0,0,0,0,0,0,0,0,0,0,0,0,0,0,0,0,0,0,0,0,0,0,0.4239,0.4239,0,0.4199,0.4199,0.4198,0.4125,0.4124,0.4122,0.4121,0.4083,0.4083,0.4083,0,0,0,0,0,0,0,0,0,0,0,0,0,0.4255,0.4255,0.424,0.4239,0.4238,0.4199,0.4199,0.4198,0.4125,0.4124,0.4122,0.412,0.4083,0.4083,0.4083,0,0,0,0,0,0,0,0,0,0,0,0,0,0.4235,0.4255,0.424,0.4197,0.4193,0.4199,0.4199,0.4198,0.4126,0.4124,0.4122,0.412,0.4082,0.4083,0.4083,0.4128,0,0,0.4085,0.4085,0,0,0,0,0,0,0,0,0.4236,0.4234,0.4204,0.42,0.4196,0.4165,0.419,0.4175,0.4126,0.4151,0.4121,0.4119,0.4112,0.411,0.4107,0.4127,0.4125,0.4085,0.4085,0.4085,0.4085,0,0,0,0,0,0,0,0.4237,0.4236,0.4224,0.4204,0.4199,0.4181,0.4176,0.4187,0.4144,0.4149,0.4144,0.414,0.4109,0.4107,0.4106,0.4124,0.4085,0.4085,0.4085,0.4086,0.4177,0.4179,0,0,0,0,0,0,0.4245,0.4237,0.4225,0.4222,0.4211,0.4182,0.4177,0.4177,0.4144,0.4137,0.4142,0.4137,0.4107,0.4105,0.4104,0.4153,0.4085,0.4086,0.4086,0.4175,0.4177,0.418,0,0,0,0,0,0,0.4245,0.4244,0.4226,0.4228,0.4225,0.4184,0.4185,0.4177,0.4175,0.4138,0.413,0.4147,0.4105,0.4103,0.4122,0.4151,0.4086,0.4086,0.4172,0.4176,0.4179,0.4253,0,0,0,0,0,0,0.4246,0.4245,0.4262,0.4229,0.4225,0.4245,0.4187,0.4178,0.4175,0.4168,0.4141,0.4134,0.4104,0.4122,0.4123,0.415,0.4086,0.4169,0.4174,0.4178,0.4248,0.4258,0.4267,0,0,0,0,0,0.4247,0.4285,0.4263,0.4262,0.4244,0.4247,0.4245,0.4207,0.4178,0.4194,0.417,0.4135,0.4148,0.4124,0.4125,0.4153,0.4168,0.4173,0.4177,0.4243,0.4256,0.4267,0,0,0,0,0,0,0.4323,0.428,0.4255,0.4283,0.4269,0.4235,0.4254,0.4223,0.4217,0.4211,0.4166,0.416,0.4185,0.4171,0.4146,0.4194,0.4152,0.4157,0.4202,0.4214,0.4224,0.4226,0.4087,0,0,0,0,0,0.4343,0.4348,0.431,0.4339,0.4333,0.4295,0.4295,0.4267,0.4251,0.4245,0.4223,0.4209,0.421,0.4211,0.421,0.4245,0.4238,0.4265,0.4275,0.4283,0.4288,0.4304,0.4315,0.4196,0.4196,0.4196,0,0,0.4385,0.4362,0.4368,0.4354,0.434,0.4346,0.4291,0.43,0.4304,0.4247,0.4262,0.4246,0.4228,0.4255,0.4265,0.4244,0.4319,0.4289,0.4296,0.4296,0.431,0.4322,0.4332,0.4199,0.4198,0.4198,0,0,0.4463,0.4447,0.4468,0.4455,0.4433,0.4407,0.4413,0.4382,0.4368,0.4383,0.434,0.4345,0.4347,0.4335,0.433,0.4402,0.437,0.4403,0.4455,0.4471,0.4481,0.4489,0.4514,0.4523,0.4408,0.4409,0.4409,0,0.4518,0.4525,0.4484,0.4495,0.449,0.4437,0.4458,0.4447,0.4427,0.4425,0.44,0.4401,0.4385,0.4408,0.4425,0.4423,0.4427,0.4406,0.4482,0.449,0.4497,0.452,0.453,0.4413,0.4412,0.4412,0.4411,0,0.4593,0.4598,0.4618,0.4598,0.4595,0.4612,0.4573,0.4576,0.4548,0.4525,0.454,0.4519,0.4512,0.4515,0.4489,0.4534,0.4521,0.449,0.4447,0.4513,0.4534,0.4543,0.4419,0.4417,0.4416,0.4415,0,0,0.4719,0.4674,0.4682,0.4672,0.4644,0.4648,0.4662,0.4653,0.4656,0.4643,0.4654,0.4656,0.4627,0.4621,0.4593,0.4607,0.4665,0.4574,0.4573,0.4591,0.4712,0.4735,0.4746,0.4643,0.4645,0.4646,0.4713,0,0.4791,0.4811,0.4773,0.4803,0.4807,0.4756,0.4768,0.4752,0.4731,0.4731,0.4708,0.471,0.4672,0.4667,0.4679,0.4655,0.4689,0.465,0.4652,0.4653,0.4658,0.4757,0.4781,0.4846,0.4721,0.4723,0.4724,0,0.4877,0.4868,0.4897,0.4866,0.4866,0.4877,0.4866,0.4867,0.4848,0.4831,0.4824,0.479,0.4802,0.4761,0.4776,0.475,0.4749,0.4737,0.4739,0.4737,0.4692,0.4757,0.4866,0.4875,0.4737,0.4736,0.4735,0,0.4965,0.4959,0.4976,0.4969,0.4933,0.4942,0.4928,0.4906,0.4903,0.4893,0.4891,0.4884,0.4879,0.4874,0.484,0.4813,0.4859,0.4815,0.4845,0.4846,0.4857,0.4857,0.4966,0.4858,0.4857,0.4857,0.4857,0,0.5049,0.5068,0.5014,0.5024,0.5045,0.5002,0.5023,0.5004,0.4985,0.4991,0.4947,0.4953,0.4907,0.4909,0.4882,0.4898,0.4897,0.4884,0.4876,0.4887,0.4889,0.4885,0.4879,0.486,0.4859,0.4859,0.4858,0,0.515,0.5114,0.5128,0.5093,0.5084,0.5101,0.507,0.5078,0.5054,0.5061,0.5061,0.5022,0.5021,0.4986,0.4979,0.4961,0.4988,0.4972,0.4994,0.4988,0.502,0.5017,0.5131,0.5143,0.5028,0.5029,0.503,0,0.5205,0.5219,0.5184,0.5184,0.5171,0.5172,0.5168,0.5126,0.5124,0.5103,0.5113,0.5108,0.5102,0.5104,0.5075,0.5069,0.5053,0.5093,0.5052,0.5062,0.5052,0.5051,0.5052,0.5102,0.5103,0.5104,0.5105,0,0.5307,0.5288,0.5283,0.5273,0.5269,0.5259,0.5246,0.5249,0.5203,0.5203,0.52,0.5196,0.5187,0.5183,0.5171,0.5157,0.5123,0.5118,0.5125,0.5136,0.5147,0.514,0.5016,0.5116,0.5115,0.5114,0.5113,0.5113,0.5385,0.5395,0.5371,0.5367,0.5353,0.5342,0.5347,0.5322,0.5319,0.5308,0.5284,0.5285,0.5265,0.5246,0.5234,0.5235,0.5215,0.5225,0.5227,0.523,0.5235,0.5148,0.5233,0.5233,0.5232,0.5232,0.5232,0,0.5484,0.5466,0.5463,0.5445,0.5442,0.541,0.5394,0.5394,0.5395,0.5379,0.5373,0.537,0.5366,0.5337,0.5329,0.5335,0.532,0.5335,0.5333,0.533,0.5254,0.5249,0.5347,0.5347,0.5347,0.5347,0.5347,0.5347,0.5534,0.5547,0.5526,0.5532,0.5514,0.5514,0.5507,0.5497,0.5483,0.5481,0.5477,0.5458,0.5436,0.5426,0.5421,0.5412,0.5411,0.5431,0.5418,0.5347,0.5336,0.5325,0.532,0.5431,0.5431,0.5493,0.5494,0.5494]},{"header":{"parameterUnit":"m.s-1","parameterCategory":1,"la1":30.2991,"la2":30.254,"lo1":-89.0895,"lo2":-89.0444,"dy":0.0017,"dx":0.0017,"nx":28,"ny":28,"refTime":"2025-05-17T21:00:00:Z","depth":0,"parameterNumber":3,"parameterNumberName":"V-component_of_WINDS"},"data":[0,0,0,0,0,0,0,0,0,0,0,0,0,0,0,0,0,0,0,0,0,0,0,0,0,0,0,0,0,0,0,0,0,0,0,0,0,0,0,0,0,0,0,0,0,0,0,0,0,0,0,0,0,0,0,0,0,0,4.6782,4.6782,0,4.6766,4.6766,4.6766,4.6697,4.6695,4.6693,4.6692,4.6677,4.6678,4.6679,0,0,0,0,0,0,0,0,0,0,0,0,0,4.6754,4.6755,4.6782,4.6782,4.6782,4.6766,4.6766,4.6766,4.6697,4.6695,4.6693,4.6691,4.6677,4.6678,4.6679,0,0,0,0,0,0,0,0,0,0,0,0,0,4.6755,4.6755,4.6782,4.6746,4.6742,4.6766,4.6766,4.6766,4.6697,4.6695,4.6693,4.669,4.6676,4.6678,4.6679,4.6738,0,0,4.6684,4.6685,0,0,0,0,0,0,0,0,4.6755,4.6756,4.6751,4.6748,4.6744,4.6731,4.6751,4.6757,4.6698,4.6715,4.6692,4.6689,4.6697,4.6697,4.6699,4.6737,4.6737,4.6685,4.6686,4.6686,4.6687,0,0,0,0,0,0,0,4.6755,4.6757,4.6776,4.6751,4.6747,4.673,4.6728,4.6751,4.672,4.6713,4.6708,4.6707,4.6695,4.6698,4.6698,4.6737,4.6685,4.6686,4.6687,4.6688,4.6822,4.6824,0,0,0,0,0,0,4.676,4.6757,4.6777,4.6776,4.6744,4.6733,4.673,4.6738,4.6719,4.6714,4.6709,4.6704,4.6696,4.6696,4.6697,4.6764,4.6686,4.6688,4.6689,4.6819,4.6822,4.6825,0,0,0,0,0,0,4.676,4.6763,4.6777,4.6765,4.6765,4.6736,4.6745,4.6739,4.6742,4.6716,4.671,4.6718,4.6694,4.6695,4.6728,4.6763,4.6689,4.669,4.6816,4.682,4.6824,4.6899,0,0,0,0,0,0,4.6759,4.6763,4.6785,4.6766,4.6766,4.6808,4.6747,4.674,4.6745,4.6738,4.6723,4.6718,4.6692,4.6726,4.673,4.6764,4.6691,4.6813,4.6818,4.6822,4.6893,4.6905,4.6915,0,0,0,0,0,4.6759,4.6807,4.6786,4.6789,4.6793,4.681,4.6811,4.678,4.6748,4.6769,4.6753,4.6719,4.6759,4.673,4.6734,4.6769,4.681,4.6816,4.6822,4.6888,4.6903,4.6915,0,0,0,0,0,0,4.6831,4.6804,4.678,4.6824,4.682,4.6799,4.6825,4.6796,4.6801,4.6794,4.6756,4.6753,4.6792,4.6784,4.6752,4.6824,4.6779,4.6786,4.6828,4.6841,4.6852,4.6853,4.6693,0,0,0,0,0,4.6853,4.6869,4.6844,4.6885,4.6884,4.6855,4.6862,4.6838,4.6832,4.683,4.6816,4.6812,4.6824,4.6832,4.6842,4.6892,4.6888,4.6918,4.6929,4.6938,4.6944,4.6969,4.6982,4.6844,4.6844,4.6844,0,0,4.6896,4.6883,4.6896,4.6899,4.6893,4.6911,4.6854,4.6875,4.6888,4.6834,4.6863,4.6853,4.6846,4.6888,4.6906,4.6883,4.6981,4.6945,4.6952,4.6953,4.6976,4.699,4.7001,4.6848,4.6847,4.6846,0,0,4.6985,4.6977,4.701,4.7005,4.6996,4.6977,4.6985,4.6967,4.6958,4.6988,4.6947,4.6962,4.6983,4.6979,4.698,4.7068,4.7036,4.7072,4.7128,4.7153,4.7164,4.7174,4.7204,4.7216,4.7078,4.7078,4.7079,0,4.7041,4.7065,4.7031,4.7054,4.7056,4.7008,4.7041,4.7038,4.7033,4.7036,4.701,4.7034,4.7026,4.7066,4.7088,4.7091,4.7098,4.7073,4.7165,4.7175,4.7183,4.7211,4.7223,4.7083,4.7082,4.7082,4.7081,0,4.7133,4.7151,4.7179,4.7174,4.718,4.7208,4.7178,4.7188,4.7164,4.7148,4.7178,4.7167,4.7173,4.7181,4.7158,4.7218,4.7203,4.7172,4.7125,4.7201,4.7227,4.7238,4.7089,4.7087,4.7086,4.7085,0,0,4.7267,4.7243,4.7254,4.7251,4.7237,4.725,4.7277,4.7282,4.7291,4.7289,4.731,4.7329,4.7299,4.7301,4.7277,4.73,4.7368,4.7265,4.7264,4.7284,4.7433,4.7456,4.7469,4.7348,4.735,4.7351,4.7433,0,4.7351,4.7393,4.7363,4.741,4.7426,4.738,4.7402,4.7397,4.7382,4.7393,4.7377,4.7391,4.7351,4.7352,4.7372,4.7356,4.7398,4.735,4.7366,4.7367,4.7369,4.7483,4.7507,4.7585,4.7443,4.7445,4.7446,0,4.7454,4.7456,4.7505,4.7487,4.7493,4.7514,4.7515,4.7527,4.752,4.7508,4.7509,4.748,4.7504,4.7459,4.7492,4.746,4.7466,4.7459,4.7461,4.7461,4.7411,4.7485,4.7609,4.762,4.7462,4.7461,4.746,0,4.7545,4.756,4.7591,4.759,4.7571,4.7587,4.758,4.757,4.7575,4.7577,4.758,4.7586,4.7588,4.7593,4.7566,4.7536,4.7603,4.7556,4.7593,4.7594,4.7609,4.7608,4.7735,4.7614,4.7614,4.7614,4.7613,0,4.7641,4.7673,4.7632,4.7651,4.7685,4.765,4.7685,4.7673,4.7665,4.7681,4.7642,4.7658,4.7622,4.7634,4.7613,4.7644,4.7646,4.7636,4.763,4.7639,4.764,4.7642,4.7635,4.7617,4.7616,4.7615,4.7615,0,4.7748,4.7722,4.7753,4.7732,4.7728,4.7754,4.7736,4.7753,4.7736,4.7757,4.776,4.7733,4.7745,4.7719,4.7728,4.7714,4.7757,4.7743,4.7759,4.7754,4.7793,4.779,4.7925,4.794,4.781,4.7812,4.7813,0,4.7811,4.7834,4.7815,4.7823,4.7818,4.7831,4.7835,4.7802,4.7809,4.7802,4.782,4.7829,4.7835,4.7857,4.7839,4.7846,4.7831,4.7878,4.7832,4.784,4.7831,4.7829,4.7831,4.7887,4.7888,4.789,4.7891,0,4.7924,4.791,4.7917,4.7921,4.7927,4.7928,4.7927,4.7935,4.79,4.7909,4.7921,4.7926,4.7935,4.7944,4.7947,4.794,4.791,4.7906,4.7914,4.7923,4.7932,4.7927,4.7784,4.7902,4.7901,4.79,4.79,4.7899,4.801,4.8028,4.8018,4.8027,4.8023,4.8022,4.8036,4.8021,4.803,4.8034,4.8014,4.8031,4.8023,4.8023,4.802,4.8032,4.8011,4.8025,4.8028,4.8031,4.8037,4.793,4.8033,4.8032,4.8032,4.8032,4.8032,0,4.8121,4.8112,4.8121,4.8119,4.8127,4.8097,4.8094,4.8103,4.8117,4.8112,4.8118,4.8132,4.8141,4.8124,4.813,4.8144,4.813,4.8146,4.8145,4.8144,4.8056,4.8047,4.8157,4.8157,4.8157,4.8157,4.8157,4.8157,4.8179,4.8207,4.8192,4.8218,4.8209,4.8224,4.8224,4.8224,4.8219,4.8236,4.8243,4.8232,4.8222,4.8227,4.8234,4.8229,4.8233,4.8254,4.8244,4.8162,4.815,4.8138,4.813,4.8255,4.8255,4.833,4.8331,4.8332]}]]